Flag Weather past 2 weeks in Annapolis, Maryland, U.S.A.

Now
50 °F

Overcast.


Feels Like: 49 °F
Forecast: 44 / 57 °F
Wind: 3 mph from Northeast

Location: Annapolis - United States Naval Academy

Current Time: Oct 31, 2014 at 7:00:22 AM

Latest Report: Oct 31, 2014 at 5:54 AM


Visibility: 10 mi

Pressure: 30.01 "Hg

Humidity: 63%

Dew point: 38 °F

Location of AnnapolisLocation

Historic Weather in Annapolis — Graph

°F

Annapolis temperature yesterday

Maximum temperature yesterday: 59 °F (at 1:54 PM)
Minimum temperature yesterday: 47 °F (at 5:54 AM)
Average temperature yesterday: 52 °F

Past Weeks' High & Low Weather Summary

 TemperatureHumidityPressure
High72 °F (Oct 17, 1:54 PM)93% (Oct 29, 11:54 PM)30.14 "Hg (Oct 29, 11:54 PM)
Low41 °F (Oct 20, 4:54 AM)23% (Oct 26, 3:54 PM)29.62 "Hg (Oct 18, 4:54 AM)
Average58 °F64%29.90 "Hg
* Reported Oct 16 5:54 AM — Oct 31 5:54 AM, Annapolis, Weather by CustomWeather, © 2014

Note: Actual official high and low records may vary slightly from our data, if they occured in-between our weather recording intervals... More about our weather records

Advertising

Annapolis weather history for previous 24 hours

 ConditionsComfort  
Time TempWeatherWind HumidityBarometerVisibility
5:54 AM
Oct 31
50 °FOvercast.3 mph63%30.01 "Hg10 mi
4:54 AM50 °FOvercast.3 mph66%30.01 "Hg10 mi
3:54 AM51 °FOvercast.3 mph63%30.01 "Hg10 mi
2:54 AM50 °FOvercast.No wind68%30.02 "Hg10 mi
1:54 AM51 °FOvercast.5 mph66%30.02 "Hg10 mi
12:54 AM53 °FOvercast.6 mph64%30.03 "Hg10 mi
11:54 PM
Oct 30
52 °FOvercast.3 mph66%30.04 "Hg10 mi
10:54 PM52 °FOvercast.3 mph75%30.05 "Hg10 mi
9:54 PM50 °FOvercast.3 mph80%30.05 "Hg10 mi
8:54 PM48 °FClear.No wind71%30.05 "Hg10 mi
7:54 PM52 °FPassing clouds.3 mph69%30.05 "Hg10 mi
6:54 PM53 °FOvercast.3 mph61%30.04 "Hg10 mi
5:54 PM56 °FPartly sunny.9 mph55%30.03 "Hg10 mi
4:54 PM57 °FPartly sunny.9 mph51%30.01 "Hg10 mi
3:54 PM59 °FPartly sunny.9 mph48%30.01 "Hg10 mi
2:54 PM59 °FScattered clouds.8 mph46%30.01 "Hg10 mi
1:54 PM59 °FPartly sunny.13 mph48%30.03 "Hg10 mi
12:54 PM57 °FSunny.8 mph51%30.04 "Hg10 mi
11:54 AM56 °FSunny.10 mph51%30.06 "Hg10 mi
10:54 AM55 °FSunny.13 mph59%30.06 "Hg10 mi
9:54 AM52 °FPartly sunny.8 mph69%30.06 "Hg10 mi
8:54 AM52 °FOvercast.9 mph66%30.05 "Hg10 mi
7:54 AM49 °FPassing clouds.5 mph77%30.03 "Hg10 mi
Weather by CustomWeather, © 2014

See weather overviewHow to use our weather pages